| time (UTC) | temp F | wind direction | speed MPH | gust MPH | rain 1hr in | rain 24hr in | rain mn in | humidity % | barometer mb |
| 20260906220049 | 98 | 104 | 4.0 | 13.0 | 0.00 | 0.00 | 0.00 | 42 | 1011.2 |
| 20260906215525 | 98 | 128 | 5.0 | 13.0 | 0.00 | 0.00 | 0.00 | 43 | 1011.3 |
| 20260906215024 | 98 | 107 | 7.0 | 13.0 | 0.00 | 0.00 | 0.00 | 42 | 1011.4 |
| 20260906214547 | 98 | 109 | 4.0 | 15.0 | 0.00 | 0.00 | 0.00 | 43 | 1011.4 |
| 20260906214024 | 98 | 100 | 6.0 | 15.0 | 0.00 | 0.00 | 0.00 | 42 | 1011.4 |
| 20260906213523 | 98 | 120 | 5.0 | 15.0 | 0.00 | 0.00 | 0.00 | 42 | 1011.5 |
| 20260906213043 | 98 | 175 | 5.0 | 11.0 | 0.00 | 0.00 | 0.00 | 42 | 1011.5 |
| 20260906212520 | 98 | 129 | 3.0 | 12.0 | 0.00 | 0.00 | 0.00 | 43 | 1011.7 |
| 20260906212024 | 97 | 107 | 5.0 | 16.0 | 0.00 | 0.00 | 0.00 | 44 | 1011.8 |
| 20260906211547 | 98 | 136 | 8.0 | 16.0 | 0.00 | 0.00 | 0.00 | 44 | 1011.9 |
| 20260906211028 | 98 | 136 | 5.0 | 12.0 | 0.00 | 0.00 | 0.00 | 43 | 1011.9 |
| 20260906210525 | 98 | 94 | 6.0 | 13.0 | 0.00 | 0.00 | 0.00 | 43 | 1012.1 |
| 20260906210050 | 98 | 103 | 7.0 | 13.0 | 0.00 | 0.00 | 0.00 | 42 | 1012.2 |
| 20260906205524 | 99 | 107 | 4.0 | 15.0 | 0.00 | 0.00 | 0.00 | 43 | 1012.2 |
| 20260906205022 | 98 | 60 | 7.0 | 15.0 | 0.00 | 0.00 | 0.00 | 43 | 1012.3 |
| 20260906204556 | 98 | 86 | 7.0 | 14.0 | 0.00 | 0.00 | 0.00 | 42 | 1012.5 |
| 20260906204022 | 98 | 130 | 7.0 | 14.0 | 0.00 | 0.00 | 0.00 | 44 | 1012.5 |
| 20260906203521 | 98 | 143 | 5.0 | 14.0 | 0.00 | 0.00 | 0.00 | 43 | 1012.5 |
| 20260906203045 | 98 | 110 | 5.0 | 13.0 | 0.00 | 0.00 | 0.00 | 43 | 1012.5 |
| 20260906202521 | 97 | 123 | 7.0 | 14.0 | 0.00 | 0.00 | 0.00 | 43 | 1012.6 |
| 20260906202025 | 97 | 144 | 8.0 | 14.0 | 0.00 | 0.00 | 0.00 | 44 | 1012.6 |
| 20260906201548 | 97 | 159 | 7.0 | 16.0 | 0.00 | 0.00 | 0.00 | 44 | 1012.8 |
| 20260906201023 | 97 | 128 | 6.0 | 16.0 | 0.00 | 0.00 | 0.00 | 45 | 1012.8 |
| 20260906200527 | 97 | 133 | 5.0 | 12.0 | 0.00 | 0.00 | 0.00 | 44 | 1012.8 |
| 20260906200041 | 97 | 67 | 6.0 | 15.0 | 0.00 | 0.00 | 0.00 | 43 | 1012.8 |
| 20260906195526 | 98 | 103 | 9.0 | 15.0 | 0.00 | 0.00 | 0.00 | 44 | 1012.8 |
| 20260906195028 | 97 | 72 | 5.0 | 18.0 | 0.00 | 0.00 | 0.00 | 44 | 1013.0 |
| 20260906194602 | 97 | 153 | 6.0 | 18.0 | 0.00 | 0.00 | 0.00 | 45 | 1013.0 |
| 20260906194025 | 98 | 141 | 6.0 | 13.0 | 0.00 | 0.00 | 0.00 | 45 | 1013.1 |
| 20260906193524 | 97 | 116 | 6.0 | 13.0 | 0.00 | 0.00 | 0.00 | 43 | 1013.1 |
| 20260906193043 | 98 | 80 | 6.0 | 15.0 | 0.00 | 0.00 | 0.00 | 45 | 1013.2 |
| 20260906192521 | 98 | 139 | 5.0 | 15.0 | 0.00 | 0.00 | 0.00 | 44 | 1013.3 |
| 20260906192024 | 96 | 61 | 8.0 | 16.0 | 0.00 | 0.00 | 0.00 | 45 | 1013.3 |
| 20260906191545 | 96 | 53 | 6.0 | 16.0 | 0.00 | 0.00 | 0.00 | 45 | 1013.4 |
| 20260906191025 | 97 | 117 | 6.0 | 14.0 | 0.00 | 0.00 | 0.00 | 44 | 1013.4 |
| 20260906190527 | 97 | 108 | 6.0 | 14.0 | 0.00 | 0.00 | 0.00 | 45 | 1013.4 |
| 20260906190050 | 97 | 88 | 7.0 | 14.0 | 0.00 | 0.00 | 0.00 | 45 | 1013.4 |
| 20260906185523 | 97 | 95 | 4.0 | 17.0 | 0.00 | 0.00 | 0.00 | 46 | 1013.4 |
| 20260906185024 | 96 | 135 | 9.0 | 17.0 | 0.00 | 0.00 | 0.00 | 47 | 1013.4 |
| 20260906184548 | 95 | 107 | 5.0 | 12.0 | 0.00 | 0.00 | 0.00 | 49 | 1013.5 |
| 20260906184023 | 96 | 138 | 6.0 | 20.0 | 0.00 | 0.00 | 0.00 | 48 | 1013.6 |
| 20260906183522 | 96 | 138 | 7.0 | 20.0 | 0.00 | 0.00 | 0.00 | 49 | 1013.6 |
| 20260906183059 | 96 | 64 | 9.0 | 20.0 | 0.00 | 0.00 | 0.00 | 48 | 1013.6 |
| 20260906182521 | 96 | 101 | 4.0 | 12.0 | 0.00 | 0.00 | 0.00 | 48 | 1013.7 |
| 20260906182026 | 96 | 129 | 7.0 | 13.0 | 0.00 | 0.00 | 0.00 | 48 | 1013.9 |
| 20260906181550 | 95 | 144 | 6.0 | 13.0 | 0.00 | 0.00 | 0.00 | 49 | 1013.8 |
| 20260906181024 | 95 | 98 | 5.0 | 12.0 | 0.00 | 0.00 | 0.00 | 50 | 1014.0 |
| 20260906180525 | 96 | 88 | 6.0 | 12.0 | 0.00 | 0.00 | 0.00 | 49 | 1014.0 |
| 20260906180104 | 96 | 156 | 7.0 | 12.0 | 0.00 | 0.00 | 0.00 | 49 | 1014.1 |
| 20260906175527 | 96 | 134 | 3.0 | 12.0 | 0.00 | 0.00 | 0.00 | 49 | 1014.1 |
| 20260906175023 | 96 | 165 | 7.0 | 12.0 | 0.00 | 0.00 | 0.00 | 50 | 1014.2 |
| 20260906174604 | 96 | 143 | 5.0 | 11.0 | 0.00 | 0.00 | 0.00 | 51 | 1014.3 |
| 20260906174023 | 95 | 131 | 5.0 | 10.0 | 0.00 | 0.00 | 0.00 | 50 | 1014.4 |
| 20260906173523 | 95 | 156 | 4.0 | 12.0 | 0.00 | 0.00 | 0.00 | 50 | 1014.5 |
| 20260906173046 | 95 | 129 | 4.0 | 12.0 | 0.00 | 0.00 | 0.00 | 51 | 1014.5 |
| 20260906172526 | 94 | 97 | 5.0 | 17.0 | 0.00 | 0.00 | 0.00 | 50 | 1014.6 |
| 20260906172025 | 94 | 123 | 7.0 | 17.0 | 0.00 | 0.00 | 0.00 | 51 | 1014.7 |
| 20260906171559 | 94 | 120 | 9.0 | 17.0 | 0.00 | 0.00 | 0.00 | 50 | 1014.7 |
| 20260906171027 | 94 | 118 | 6.0 | 13.0 | 0.00 | 0.00 | 0.00 | 51 | 1014.6 |
| 20260906170524 | 95 | 81 | 4.0 | 13.0 | 0.00 | 0.00 | 0.00 | 51 | 1014.6 |
| 20260906170058 | 95 | 126 | 7.0 | 13.0 | 0.00 | 0.00 | 0.00 | 52 | 1014.8 |
| 20260906165524 | 94 | 82 | 5.0 | 13.0 | 0.00 | 0.00 | 0.00 | 51 | 1014.8 |
| 20260906165024 | 94 | 93 | 6.0 | 13.0 | 0.00 | 0.00 | 0.00 | 53 | 1014.9 |
| 20260906164548 | 94 | 105 | 5.0 | 12.0 | 0.00 | 0.00 | 0.00 | 53 | 1015.0 |
| 20260906164023 | 94 | 121 | 4.0 | 10.0 | 0.00 | 0.00 | 0.00 | 54 | 1015.0 |
| 20260906163522 | 94 | 115 | 6.0 | 11.0 | 0.00 | 0.00 | 0.00 | 53 | 1015.0 |
| 20260906163043 | 94 | 144 | 5.0 | 11.0 | 0.00 | 0.00 | 0.00 | 54 | 1014.9 |
| 20260906162522 | 93 | 110 | 0.0 | 11.0 | 0.00 | 0.00 | 0.00 | 55 | 1015.0 |
| 20260906162025 | 93 | 0 | 3.0 | 11.0 | 0.00 | 0.00 | 0.00 | 55 | 1015.0 |
| 20260906161612 | 93 | 122 | 4.0 | 10.0 | 0.00 | 0.00 | 0.00 | 55 | 1015.0 |
| 20260906161024 | 92 | 140 | 4.0 | 10.0 | 0.00 | 0.00 | 0.00 | 56 | 1014.9 |
| 20260906160524 | 92 | 150 | 6.0 | 10.0 | 0.00 | 0.00 | 0.00 | 55 | 1014.9 |
| 20260906160049 | 93 | 151 | 3.0 | 8.0 | 0.00 | 0.00 | 0.00 | 57 | 1014.8 |
| 20260906155526 | 92 | 104 | 2.0 | 7.0 | 0.00 | 0.00 | 0.00 | 57 | 1014.8 |
| 20260906155023 | 92 | 121 | 1.0 | 8.0 | 0.00 | 0.00 | 0.00 | 58 | 1014.9 |
| 20260906154550 | 92 | 119 | 3.0 | 8.0 | 0.00 | 0.00 | 0.00 | 57 | 1015.0 |
| 20260906154025 | 92 | 99 | 3.0 | 8.0 | 0.00 | 0.00 | 0.00 | 58 | 1014.9 |
| 20260906153524 | 91 | 72 | 2.0 | 8.0 | 0.00 | 0.00 | 0.00 | 58 | 1014.9 |
| 20260906153107 | 91 | 62 | 2.0 | 8.0 | 0.00 | 0.00 | 0.00 | 59 | 1014.7 |
| 20260906152526 | 91 | 128 | 2.0 | 6.0 | 0.00 | 0.00 | 0.00 | 58 | 1014.7 |
| 20260906152024 | 91 | 0 | 2.0 | 6.0 | 0.00 | 0.00 | 0.00 | 59 | 1014.7 |
| 20260906151549 | 90 | 0 | 0.0 | 0.0 | 0.00 | 0.00 | 0.00 | 61 | 1014.6 |
| 20260906151025 | 90 | 0 | 0.0 | 0.0 | 0.00 | 0.00 | 0.00 | 62 | 1014.5 |
| 20260906150524 | 90 | 0 | 0.0 | 0.0 | 0.00 | 0.00 | 0.00 | 63 | 1014.6 |
| 20260906150049 | 89 | 0 | 0.0 | 0.0 | 0.00 | 0.00 | 0.00 | 63 | 1014.4 |
| 20260906145522 | 89 | 0 | 0.0 | 0.0 | 0.00 | 0.00 | 0.00 | 64 | 1014.4 |
| 20260906145023 | 88 | 0 | 0.0 | 0.0 | 0.00 | 0.00 | 0.00 | 65 | 1014.5 |
| 20260906144543 | 88 | 0 | 0.0 | 0.0 | 0.00 | 0.00 | 0.00 | 66 | 1014.4 |
| 20260906144021 | 87 | 0 | 0.0 | 4.0 | 0.00 | 0.00 | 0.00 | 67 | 1014.4 |
| 20260906143523 | 87 | 0 | 0.0 | 5.0 | 0.00 | 0.00 | 0.00 | 69 | 1014.4 |
| 20260906143042 | 86 | 113 | 2.0 | 5.0 | 0.00 | 0.00 | 0.00 | 69 | 1014.4 |
| 20260906142518 | 86 | 73 | 1.0 | 4.0 | 0.00 | 0.00 | 0.00 | 69 | 1014.4 |
| 20260906142025 | 86 | 113 | 0.0 | 4.0 | 0.00 | 0.00 | 0.00 | 70 | 1014.3 |
| 20260906141603 | 85 | 0 | 0.0 | 4.0 | 0.00 | 0.00 | 0.00 | 71 | 1014.4 |
| 20260906141024 | 84 | 127 | 1.0 | 6.0 | 0.00 | 0.00 | 0.00 | 73 | 1014.4 |
| 20260906140523 | 84 | 144 | 1.0 | 6.0 | 0.00 | 0.00 | 0.00 | 74 | 1014.4 |
| 20260906140048 | 84 | 150 | 0.0 | 5.0 | 0.00 | 0.00 | 0.00 | 74 | 1014.5 |
| 20260906135525 | 83 | 138 | 3.0 | 6.0 | 0.00 | 0.00 | 0.00 | 74 | 1014.4 |
| 20260906135023 | 83 | 134 | 1.0 | 7.0 | 0.00 | 0.00 | 0.00 | 75 | 1014.5 |
| 20260906134542 | 82 | 136 | 3.0 | 7.0 | 0.00 | 0.00 | 0.00 | 76 | 1014.7 |
| 20260906134021 | 82 | 126 | 3.0 | 7.0 | 0.00 | 0.00 | 0.00 | 76 | 1014.7 |
| 20260906133522 | 82 | 150 | 4.0 | 7.0 | 0.00 | 0.00 | 0.00 | 77 | 1014.7 |
| 20260906133046 | 81 | 150 | 3.0 | 5.0 | 0.00 | 0.00 | 0.00 | 78 | 1014.6 |
| 20260906132523 | 81 | 117 | 1.0 | 5.0 | 0.00 | 0.00 | 0.00 | 79 | 1014.5 |
| 20260906132024 | 81 | 140 | 1.0 | 5.0 | 0.00 | 0.00 | 0.00 | 80 | 1014.6 |
| 20260906131600 | 80 | 0 | 0.0 | 0.0 | 0.00 | 0.00 | 0.00 | 81 | 1014.6 |
| 20260906131025 | 79 | 0 | 0.0 | 0.0 | 0.00 | 0.00 | 0.00 | 82 | 1014.5 |
| 20260906130524 | 78 | 0 | 0.0 | 0.0 | 0.00 | 0.00 | 0.00 | 83 | 1014.5 |
| 20260906130056 | 78 | 0 | 0.0 | 0.0 | 0.00 | 0.00 | 0.00 | 84 | 1014.3 |
| 20260906125521 | 77 | 0 | 0.0 | 0.0 | 0.00 | 0.00 | 0.00 | 85 | 1014.3 |
| 20260906125023 | 77 | 0 | 0.0 | 0.0 | 0.00 | 0.00 | 0.00 | 85 | 1014.4 |
| 20260906124543 | 76 | 0 | 0.0 | 0.0 | 0.00 | 0.00 | 0.00 | 85 | 1014.4 |
| 20260906124021 | 76 | 0 | 0.0 | 0.0 | 0.00 | 0.00 | 0.00 | 85 | 1014.4 |
| 20260906123521 | 76 | 0 | 0.0 | 0.0 | 0.00 | 0.00 | 0.00 | 85 | 1014.3 |
| 20260906123042 | 76 | 0 | 0.0 | 0.0 | 0.00 | 0.00 | 0.00 | 85 | 1014.2 |
| 20260906122520 | 76 | 0 | 0.0 | 0.0 | 0.00 | 0.00 | 0.00 | 85 | 1014.2 |
| 20260906122018 | 76 | 0 | 0.0 | 0.0 | 0.00 | 0.00 | 0.00 | 85 | 1014.2 |
| 20260906121541 | 75 | 0 | 0.0 | 0.0 | 0.00 | 0.00 | 0.00 | 85 | 1014.0 |
| 20260906121029 | 75 | 0 | 0.0 | 0.0 | 0.00 | 0.00 | 0.00 | 85 | 1014.0 |
| 20260906120527 | 75 | 0 | 0.0 | 0.0 | 0.00 | 0.00 | 0.00 | 85 | 1014.0 |
| 20260906120047 | 75 | 0 | 0.0 | 0.0 | 0.00 | 0.00 | 0.00 | 85 | 1014.0 |
| 20260906115524 | 75 | 0 | 0.0 | 0.0 | 0.00 | 0.00 | 0.00 | 85 | 1014.1 |
| 20260906115022 | 75 | 0 | 0.0 | 0.0 | 0.00 | 0.00 | 0.00 | 85 | 1014.0 |
| 20260906114548 | 75 | 0 | 0.0 | 0.0 | 0.00 | 0.00 | 0.00 | 84 | 1013.9 |
| 20260906114023 | 75 | 0 | 0.0 | 0.0 | 0.00 | 0.00 | 0.00 | 84 | 1013.8 |
| 20260906113521 | 76 | 0 | 0.0 | 0.0 | 0.00 | 0.00 | 0.00 | 84 | 1013.7 |
| 20260906113042 | 75 | 0 | 0.0 | 0.0 | 0.00 | 0.00 | 0.00 | 84 | 1013.7 |
| 20260906112517 | 76 | 0 | 0.0 | 0.0 | 0.00 | 0.00 | 0.00 | 84 | 1013.6 |
| 20260906112020 | 76 | 0 | 0.0 | 0.0 | 0.00 | 0.00 | 0.00 | 84 | 1013.5 |
| 20260906111550 | 76 | 0 | 0.0 | 0.0 | 0.00 | 0.00 | 0.00 | 83 | 1013.6 |
| 20260906111024 | 76 | 0 | 0.0 | 0.0 | 0.00 | 0.00 | 0.00 | 83 | 1013.6 |
| 20260906110524 | 76 | 0 | 0.0 | 0.0 | 0.00 | 0.00 | 0.00 | 83 | 1013.5 |
| 20260906110046 | 76 | 0 | 0.0 | 0.0 | 0.00 | 0.00 | 0.00 | 84 | 1013.6 |
| 20260906105524 | 76 | 0 | 0.0 | 0.0 | 0.00 | 0.00 | 0.00 | 84 | 1013.5 |
| 20260906105024 | 75 | 0 | 0.0 | 0.0 | 0.00 | 0.00 | 0.00 | 84 | 1013.4 |
| 20260906104542 | 76 | 0 | 0.0 | 0.0 | 0.00 | 0.00 | 0.00 | 83 | 1013.3 |
| 20260906104024 | 76 | 0 | 0.0 | 0.0 | 0.00 | 0.00 | 0.00 | 83 | 1013.3 |
| 20260906103519 | 76 | 0 | 0.0 | 0.0 | 0.00 | 0.00 | 0.00 | 83 | 1013.3 |
| 20260906103047 | 76 | 0 | 0.0 | 0.0 | 0.00 | 0.00 | 0.00 | 82 | 1013.2 |
| 20260906102519 | 76 | 0 | 0.0 | 0.0 | 0.00 | 0.00 | 0.00 | 82 | 1013.2 |
| 20260906102019 | 77 | 0 | 0.0 | 0.0 | 0.00 | 0.00 | 0.00 | 82 | 1013.3 |
| 20260906101540 | 77 | 0 | 0.0 | 0.0 | 0.00 | 0.00 | 0.00 | 82 | 1013.3 |
| 20260906101024 | 77 | 0 | 0.0 | 0.0 | 0.00 | 0.00 | 0.00 | 82 | 1013.2 |
| 20260906100528 | 77 | 0 | 0.0 | 0.0 | 0.00 | 0.00 | 0.00 | 82 | 1013.1 |
| 20260906100046 | 77 | 0 | 0.0 | 0.0 | 0.00 | 0.00 | 0.00 | 83 | 1013.1 |
| 20260906095525 | 77 | 0 | 0.0 | 0.0 | 0.00 | 0.00 | 0.00 | 83 | 1013.1 |
| 20260906095022 | 77 | 0 | 0.0 | 0.0 | 0.00 | 0.00 | 0.00 | 82 | 1013.1 |
| 20260906094545 | 77 | 0 | 0.0 | 0.0 | 0.00 | 0.00 | 0.00 | 82 | 1013.0 |
| 20260906094023 | 77 | 0 | 0.0 | 0.0 | 0.00 | 0.00 | 0.00 | 81 | 1013.1 |
| 20260906093519 | 77 | 0 | 0.0 | 0.0 | 0.00 | 0.00 | 0.00 | 81 | 1013.0 |
| 20260906093051 | 78 | 0 | 0.0 | 0.0 | 0.00 | 0.00 | 0.00 | 80 | 1013.0 |
| 20260906092523 | 78 | 0 | 0.0 | 0.0 | 0.00 | 0.00 | 0.00 | 80 | 1012.9 |
| 20260906092024 | 78 | 0 | 0.0 | 0.0 | 0.00 | 0.00 | 0.00 | 81 | 1012.9 |
| 20260906091550 | 78 | 0 | 0.0 | 0.0 | 0.00 | 0.00 | 0.00 | 81 | 1012.8 |
| 20260906091024 | 78 | 0 | 0.0 | 0.0 | 0.00 | 0.00 | 0.00 | 81 | 1012.8 |
| 20260906090523 | 78 | 0 | 0.0 | 0.0 | 0.00 | 0.00 | 0.00 | 80 | 1012.8 |
| 20260906090053 | 78 | 0 | 0.0 | 0.0 | 0.00 | 0.00 | 0.00 | 80 | 1012.7 |
| 20260906085522 | 78 | 0 | 0.0 | 0.0 | 0.00 | 0.00 | 0.00 | 80 | 1012.7 |
| 20260906085023 | 78 | 0 | 0.0 | 0.0 | 0.00 | 0.00 | 0.00 | 80 | 1012.8 |
| 20260906084543 | 78 | 0 | 0.0 | 0.0 | 0.00 | 0.00 | 0.00 | 80 | 1012.7 |
| 20260906084030 | 78 | 0 | 0.0 | 0.0 | 0.00 | 0.00 | 0.00 | 80 | 1012.7 |
| 20260906083521 | 78 | 0 | 0.0 | 0.0 | 0.00 | 0.00 | 0.00 | 80 | 1012.7 |
| 20260906083047 | 78 | 0 | 0.0 | 0.0 | 0.00 | 0.00 | 0.00 | 79 | 1012.5 |
| 20260906082520 | 78 | 0 | 0.0 | 0.0 | 0.00 | 0.00 | 0.00 | 79 | 1012.5 |
| 20260906082024 | 78 | 0 | 0.0 | 0.0 | 0.00 | 0.00 | 0.00 | 78 | 1012.5 |
| 20260906081541 | 78 | 0 | 0.0 | 0.0 | 0.00 | 0.00 | 0.00 | 78 | 1012.4 |
| 20260906081024 | 78 | 0 | 0.0 | 0.0 | 0.00 | 0.00 | 0.00 | 78 | 1012.4 |
| 20260906080524 | 78 | 0 | 0.0 | 0.0 | 0.00 | 0.00 | 0.00 | 78 | 1012.6 |
| 20260906080048 | 78 | 0 | 0.0 | 0.0 | 0.00 | 0.00 | 0.00 | 78 | 1012.7 |
| 20260906075523 | 78 | 0 | 0.0 | 0.0 | 0.00 | 0.00 | 0.00 | 77 | 1012.6 |
| 20260906075022 | 78 | 0 | 0.0 | 0.0 | 0.00 | 0.00 | 0.00 | 77 | 1012.7 |
| 20260906074543 | 78 | 0 | 0.0 | 0.0 | 0.00 | 0.00 | 0.00 | 78 | 1012.7 |
| 20260906074022 | 78 | 0 | 0.0 | 0.0 | 0.00 | 0.00 | 0.00 | 78 | 1012.8 |
| 20260906073523 | 78 | 0 | 0.0 | 0.0 | 0.00 | 0.00 | 0.00 | 77 | 1012.8 |
| 20260906073043 | 78 | 0 | 0.0 | 0.0 | 0.00 | 0.00 | 0.00 | 78 | 1012.9 |
| 20260906072518 | 78 | 0 | 0.0 | 0.0 | 0.00 | 0.00 | 0.00 | 78 | 1012.9 |
| 20260906072025 | 79 | 0 | 0.0 | 0.0 | 0.00 | 0.00 | 0.00 | 77 | 1013.0 |
| 20260906071540 | 79 | 0 | 0.0 | 0.0 | 0.00 | 0.00 | 0.00 | 76 | 1013.1 |
| 20260906071024 | 79 | 0 | 0.0 | 0.0 | 0.00 | 0.00 | 0.00 | 76 | 1013.0 |
| 20260906070528 | 80 | 0 | 0.0 | 0.0 | 0.00 | 0.00 | 0.00 | 76 | 1012.8 |
| 20260906070048 | 80 | 0 | 0.0 | 0.0 | 0.00 | 0.00 | 0.00 | 75 | 1012.9 |
| 20260906065523 | 80 | 0 | 0.0 | 0.0 | 0.00 | 0.00 | 0.00 | 74 | 1012.9 |
| 20260906065027 | 80 | 0 | 0.0 | 0.0 | 0.00 | 0.00 | 0.00 | 74 | 1012.9 |
| 20260906064543 | 80 | 0 | 0.0 | 0.0 | 0.00 | 0.00 | 0.00 | 73 | 1012.9 |
| 20260906064021 | 81 | 0 | 0.0 | 0.0 | 0.00 | 0.00 | 0.00 | 73 | 1013.0 |
| 20260906063521 | 81 | 0 | 0.0 | 0.0 | 0.00 | 0.00 | 0.00 | 73 | 1012.9 |
| 20260906063043 | 81 | 0 | 0.0 | 0.0 | 0.00 | 0.00 | 0.00 | 73 | 1013.0 |
| 20260906062525 | 81 | 0 | 0.0 | 0.0 | 0.00 | 0.00 | 0.00 | 73 | 1012.9 |
| 20260906062019 | 81 | 0 | 0.0 | 0.0 | 0.00 | 0.00 | 0.00 | 72 | 1013.0 |
| 20260906061547 | 82 | 0 | 0.0 | 0.0 | 0.00 | 0.00 | 0.00 | 72 | 1013.0 |
| 20260906061024 | 82 | 0 | 0.0 | 0.0 | 0.00 | 0.00 | 0.00 | 72 | 1013.0 |
| 20260906060523 | 82 | 0 | 0.0 | 0.0 | 0.00 | 0.00 | 0.00 | 71 | 1012.8 |
| 20260906060052 | 82 | 0 | 0.0 | 0.0 | 0.00 | 0.00 | 0.00 | 71 | 1012.9 |
| 20260906055524 | 82 | 0 | 0.0 | 0.0 | 0.00 | 0.00 | 0.00 | 71 | 1013.0 |
| 20260906055024 | 82 | 0 | 0.0 | 0.0 | 0.00 | 0.00 | 0.00 | 71 | 1013.1 |
| 20260906054546 | 82 | 0 | 0.0 | 0.0 | 0.00 | 0.00 | 0.00 | 70 | 1013.0 |
| 20260906054019 | 83 | 0 | 0.0 | 0.0 | 0.00 | 0.00 | 0.00 | 70 | 1013.0 |
| 20260906053521 | 83 | 0 | 0.0 | 0.0 | 0.00 | 0.00 | 0.00 | 70 | 1013.2 |
| 20260906053043 | 83 | 0 | 0.0 | 0.0 | 0.00 | 0.00 | 0.00 | 70 | 1013.1 |
| 20260906052520 | 83 | 0 | 0.0 | 0.0 | 0.00 | 0.00 | 0.00 | 69 | 1013.3 |
| 20260906052021 | 83 | 0 | 0.0 | 0.0 | 0.00 | 0.00 | 0.00 | 68 | 1013.3 |
| 20260906051541 | 83 | 0 | 0.0 | 0.0 | 0.00 | 0.00 | 0.00 | 68 | 1013.3 |
| 20260906051021 | 84 | 0 | 0.0 | 0.0 | 0.00 | 0.00 | 0.00 | 67 | 1013.1 |
| 20260906050525 | 84 | 0 | 0.0 | 0.0 | 0.00 | 0.00 | 0.00 | 67 | 1013.0 |
| 20260906050048 | 84 | 0 | 0.0 | 0.0 | 0.00 | 0.00 | 0.00 | 67 | 1013.1 |
| 20260906045524 | 84 | 0 | 0.0 | 1.0 | 0.00 | 0.00 | 0.00 | 67 | 1013.1 |
| 20260906045022 | 85 | 0 | 0.0 | 3.0 | 0.00 | 0.00 | 0.00 | 66 | 1013.1 |
| 20260906044542 | 85 | 0 | 0.0 | 3.0 | 0.00 | 0.00 | 0.00 | 66 | 1013.2 |
| 20260906044023 | 85 | 0 | 0.0 | 5.0 | 0.00 | 0.00 | 0.00 | 65 | 1013.1 |
| 20260906043521 | 85 | 0 | 1.0 | 5.0 | 0.00 | 0.00 | 0.00 | 65 | 1013.0 |
| 20260906043040 | 85 | 138 | 2.0 | 5.0 | 0.00 | 0.00 | 0.00 | 65 | 1013.1 |
| 20260906042523 | 85 | 137 | 0.0 | 4.0 | 0.00 | 0.00 | 0.00 | 65 | 1013.0 |
| 20260906042020 | 85 | 0 | 0.0 | 3.0 | 0.00 | 0.00 | 0.00 | 65 | 1013.0 |
| 20260906041543 | 86 | 137 | 0.0 | 3.0 | 0.00 | 0.00 | 0.00 | 64 | 1012.9 |
| 20260906041024 | 86 | 136 | 1.0 | 5.0 | 0.00 | 0.00 | 0.00 | 64 | 1012.9 |
| 20260906040524 | 86 | 0 | 1.0 | 5.0 | 0.00 | 0.00 | 0.00 | 64 | 1012.9 |
| 20260906040045 | 86 | 136 | 2.0 | 5.0 | 0.00 | 0.00 | 0.00 | 63 | 1012.9 |
| 20260906035522 | 86 | 138 | 3.0 | 5.0 | 0.00 | 0.00 | 0.00 | 63 | 1012.9 |
| 20260906035021 | 87 | 127 | 2.0 | 9.0 | 0.00 | 0.00 | 0.00 | 63 | 1013.0 |
| 20260906034557 | 87 | 144 | 4.0 | 9.0 | 0.00 | 0.00 | 0.00 | 63 | 1013.0 |
| 20260906034020 | 87 | 140 | 2.0 | 9.0 | 0.00 | 0.00 | 0.00 | 62 | 1013.0 |
| 20260906033520 | 87 | 136 | 4.0 | 10.0 | 0.00 | 0.00 | 0.00 | 62 | 1013.1 |
| 20260906033044 | 87 | 133 | 4.0 | 11.0 | 0.00 | 0.00 | 0.00 | 62 | 1013.1 |
| 20260906032520 | 88 | 140 | 5.0 | 12.0 | 0.00 | 0.00 | 0.00 | 61 | 1013.1 |
| 20260906032025 | 88 | 132 | 4.0 | 12.0 | 0.00 | 0.00 | 0.00 | 61 | 1012.9 |
| 20260906031549 | 88 | 139 | 6.0 | 11.0 | 0.00 | 0.00 | 0.00 | 61 | 1013.0 |
| 20260906031024 | 88 | 144 | 5.0 | 11.0 | 0.00 | 0.00 | 0.00 | 60 | 1013.0 |
| 20260906030526 | 88 | 144 | 5.0 | 11.0 | 0.00 | 0.00 | 0.00 | 60 | 1012.9 |
| 20260906030044 | 88 | 153 | 6.0 | 11.0 | 0.00 | 0.00 | 0.00 | 60 | 1012.9 |
| 20260906025523 | 89 | 148 | 5.0 | 13.0 | 0.00 | 0.00 | 0.00 | 59 | 1012.7 |
| 20260906025021 | 89 | 150 | 7.0 | 13.0 | 0.00 | 0.00 | 0.00 | 59 | 1012.8 |
| 20260906024543 | 89 | 136 | 6.0 | 12.0 | 0.00 | 0.00 | 0.00 | 58 | 1012.8 |
| 20260906024022 | 89 | 163 | 7.0 | 15.0 | 0.00 | 0.00 | 0.00 | 57 | 1012.6 |
| 20260906023520 | 90 | 146 | 7.0 | 15.0 | 0.00 | 0.00 | 0.00 | 57 | 1012.5 |
| 20260906023040 | 90 | 163 | 8.0 | 14.0 | 0.00 | 0.00 | 0.00 | 56 | 1012.4 |
| 20260906022522 | 90 | 161 | 6.0 | 12.0 | 0.00 | 0.00 | 0.00 | 55 | 1012.4 |
| 20260906022020 | 90 | 126 | 8.0 | 12.0 | 0.00 | 0.00 | 0.00 | 54 | 1012.4 |
| 20260906021557 | 90 | 154 | 3.0 | 7.0 | 0.00 | 0.00 | 0.00 | 51 | 1012.3 |
| 20260906021017 | 89 | 0 | 0.0 | 1.0 | 0.00 | 0.00 | 0.00 | 51 | 1012.1 |
| 20260906020518 | 90 | 0 | 0.0 | 1.0 | 0.00 | 0.00 | 0.00 | 51 | 1012.0 |
| 20260906020042 | 90 | 92 | 0.0 | 1.0 | 0.00 | 0.00 | 0.00 | 50 | 1012.0 |
| 20260906015524 | 90 | 0 | 0.0 | 0.0 | 0.00 | 0.00 | 0.00 | 50 | 1011.9 |
| 20260906015025 | 90 | 0 | 0.0 | 0.0 | 0.00 | 0.00 | 0.00 | 50 | 1011.9 |
| 20260906014550 | 90 | 0 | 0.0 | 0.0 | 0.00 | 0.00 | 0.00 | 49 | 1011.7 |
| 20260906014028 | 91 | 0 | 0.0 | 0.0 | 0.00 | 0.00 | 0.00 | 49 | 1011.7 |
| 20260906013523 | 91 | 0 | 0.0 | 0.0 | 0.00 | 0.00 | 0.00 | 49 | 1011.6 |
| 20260906013044 | 91 | 0 | 0.0 | 0.0 | 0.00 | 0.00 | 0.00 | 48 | 1011.6 |
| 20260906012523 | 92 | 0 | 0.0 | 2.0 | 0.00 | 0.00 | 0.00 | 48 | 1011.6 |
| 20260906012022 | 92 | 0 | 0.0 | 2.0 | 0.00 | 0.00 | 0.00 | 48 | 1011.5 |
| 20260906011542 | 92 | 0 | 0.0 | 3.0 | 0.00 | 0.00 | 0.00 | 48 | 1011.5 |
| 20260906011021 | 92 | 93 | 0.0 | 3.0 | 0.00 | 0.00 | 0.00 | 47 | 1011.5 |
| 20260906010519 | 93 | 0 | 0.0 | 3.0 | 0.00 | 0.00 | 0.00 | 47 | 1011.5 |
| 20260906010054 | 93 | 0 | 0.0 | 3.0 | 0.00 | 0.00 | 0.00 | 46 | 1011.4 |
| 20260906005520 | 93 | 0 | 0.0 | 3.0 | 0.00 | 0.00 | 0.00 | 46 | 1011.3 |
| 20260906005020 | 94 | 90 | 1.0 | 4.0 | 0.00 | 0.00 | 0.00 | 46 | 1011.4 |
| 20260906004552 | 94 | 90 | 1.0 | 6.0 | 0.00 | 0.00 | 0.00 | 45 | 1011.3 |
| 20260906004029 | 94 | 111 | 1.0 | 6.0 | 0.00 | 0.00 | 0.00 | 45 | 1011.2 |
| 20260906003524 | 94 | 94 | 3.0 | 6.0 | 0.00 | 0.00 | 0.00 | 44 | 1011.3 |
| 20260906003043 | 95 | 107 | 2.0 | 6.0 | 0.00 | 0.00 | 0.00 | 44 | 1011.3 |
| 20260906002520 | 95 | 0 | 1.0 | 7.0 | 0.00 | 0.00 | 0.00 | 43 | 1011.3 |
| 20260906002024 | 95 | 116 | 2.0 | 8.0 | 0.00 | 0.00 | 0.00 | 43 | 1011.2 |
| 20260906001557 | 95 | 105 | 2.0 | 8.0 | 0.00 | 0.00 | 0.00 | 42 | 1011.2 |
| 20260906001021 | 95 | 65 | 3.0 | 8.0 | 0.00 | 0.00 | 0.00 | 42 | 1011.2 |
| 20260906000520 | 96 | 96 | 4.0 | 9.0 | 0.00 | 0.00 | 0.00 | 43 | 1011.2 |
| 20260906000051 | 96 | 80 | 3.0 | 9.0 | 0.00 | 0.00 | 0.00 | 41 | 1011.1 |
| 20260905235525 | 96 | 72 | 3.0 | 9.0 | 0.00 | 0.00 | 0.00 | 42 | 1011.1 |
| 20260905235024 | 96 | 107 | 3.0 | 9.0 | 0.00 | 0.00 | 0.00 | 42 | 1011.0 |
| 20260905234547 | 96 | 75 | 2.0 | 9.0 | 0.00 | 0.00 | 0.00 | 42 | 1011.0 |
| 20260905234024 | 96 | 132 | 2.0 | 7.0 | 0.00 | 0.00 | 0.00 | 43 | 1010.9 |
| 20260905233524 | 96 | 123 | 1.0 | 8.0 | 0.00 | 0.00 | 0.00 | 43 | 1011.0 |
| 20260905233044 | 96 | 108 | 2.0 | 9.0 | 0.00 | 0.00 | 0.00 | 41 | 1011.0 |
| 20260905232525 | 97 | 115 | 5.0 | 9.0 | 0.00 | 0.00 | 0.00 | 41 | 1011.1 |
| 20260905232022 | 97 | 113 | 3.0 | 8.0 | 0.00 | 0.00 | 0.00 | 41 | 1011.1 |
| 20260905231542 | 97 | 138 | 3.0 | 8.0 | 0.00 | 0.00 | 0.00 | 41 | 1011.1 |
| 20260905231024 | 97 | 173 | 3.0 | 8.0 | 0.00 | 0.00 | 0.00 | 43 | 1011.1 |
| 20260905230525 | 97 | 115 | 3.0 | 8.0 | 0.00 | 0.00 | 0.00 | 42 | 1011.0 |
| 20260905230051 | 97 | 114 | 1.0 | 7.0 | 0.00 | 0.00 | 0.00 | 43 | 1010.9 |
| 20260905225530 | 97 | 139 | 3.0 | 8.0 | 0.00 | 0.00 | 0.00 | 42 | 1010.9 |
| 20260905225022 | 97 | 139 | 2.0 | 9.0 | 0.00 | 0.00 | 0.00 | 44 | 1011.0 |
| 20260905224543 | 97 | 128 | 4.0 | 9.0 | 0.00 | 0.00 | 0.00 | 44 | 1011.0 |
| 20260905224024 | 97 | 123 | 4.0 | 8.0 | 0.00 | 0.00 | 0.00 | 43 | 1011.0 |
| 20260905223521 | 97 | 78 | 1.0 | 9.0 | 0.00 | 0.00 | 0.00 | 43 | 1011.0 |
| 20260905223050 | 97 | 195 | 3.0 | 9.0 | 0.00 | 0.00 | 0.00 | 43 | 1011.1 |
| 20260905222523 | 97 | 142 | 2.0 | 8.0 | 0.00 | 0.00 | 0.00 | 44 | 1011.0 |
| 20260905222020 | 97 | 0 | 1.0 | 8.0 | 0.00 | 0.00 | 0.00 | 42 | 1010.9 |
| 20260905221547 | 97 | 140 | 2.0 | 8.0 | 0.00 | 0.00 | 0.00 | 43 | 1011.0 |
| 20260905221025 | 97 | 79 | 4.0 | 8.0 | 0.00 | 0.00 | 0.00 | 43 | 1011.1 |
| 20260905220527 | 97 | 0 | 1.0 | 9.0 | 0.00 | 0.00 | 0.00 | 43 | 1011.2 |